Regional Weather Roundup
Issued by NWS Wilmington, NC

Home | Current Version | Previous Version | Text Only | Print | Product List | Glossary On
Versions: 1 2 3 4 5 6 7 8 9 10 11 12 13 14 15 16 17 18 19 20 21 22 23 24 25 26 27 28 29 30 31 32 33 34 35
000
ASUS42 KILM 230210
RWRILM
RWRILM
REGIONAL HOURLY WEATHER ROUNDUP
NATIONAL WEATHER SERVICE WILMINGTON NC
1000 PM EDT WED OCT 22 2014

NOTE: "FAIR" INDICATES FEW OR NO CLOUDS BELOW 12,000 FEET WITH NO
SIGNIFICANT WEATHER AND/OR OBSTRUCTIONS TO VISIBILITY.

...............WFO WILMINGTON COUNTY WARNING AREA...............

......COASTAL NC AND SC COUNTIES......

CITY           SKY/WX    TMP DP  RH WIND       PRES   REMARKS
WILMINGTON     CLEAR     56  46  69 NW7       30.01R
SOUTHPORT      CLEAR     56  46  68 NW5       30.02R
N MYRTLE BEACH CLEAR     54  48  80 CALM      30.03R
MYRTLE BEACH   CLEAR     55  45  67 NW8       30.03R

......INLAND NC AND SC COUNTIES.......

CITY           SKY/WX    TMP DP  RH WIND       PRES   REMARKS
LUMBERTON      CLEAR     52  43  71 NW6       30.04R
ELIZABETHTOWN  CLEAR     56  45  65 NW5       30.03R
WHITEVILLE     CLEAR     54  46  75 CALM      30.03R
FLORENCE       CLEAR     57  41  55 N10       30.06R
DARLINGTON     CLEAR     55  39  54 N12       30.08R

....................REST OF NORTH CAROLINA......................

.........EASTERN NC.........

CITY           SKY/WX    TMP DP  RH WIND       PRES   REMARKS
CAPE HATTERAS  CLOUDY    58  50  75 NW16G28   29.90R
JACKSONVILLE   CLOUDY    55  45  67 CALM      30.00R
MOREHEAD CITY  MOCLDY    58  49  72 NW18      29.97R
KENANSVILLE    CLEAR     54  43  66 W3        30.01R
NEW BERN       CLOUDY    60  48  64 NW9       29.99R
ELIZABETH CITY CLOUDY    58  49  72 NW17      29.91R

.........CENTRAL NC.........

CITY           SKY/WX    TMP DP  RH WIND       PRES   REMARKS
RALEIGH DURHAM PTCLDY    55  41  59 VRB3      30.03R
ROCKY MOUNT    MOCLDY    57  47  69 NW8       30.00R
ROANOKE RAPIDS NOT AVBL
FAYETTEVILLE   CLEAR     58  41  53 NW9       30.03R
HOFFMAN        CLEAR     53  42  65 NW6       30.07R

.........WESTERN NC.........

CITY           SKY/WX    TMP DP  RH WIND       PRES   REMARKS
CHARLOTTE      CLEAR     49  38  65 NW7       30.10S
GREENSBORO     CLEAR     50  39  66 NW9       30.06R
HICKORY        NOT AVBL
BOONE          NOT AVBL
ASHEVILLE      NOT AVBL

.....................REST OF SOUTH CAROLINA.....................

.........EASTERN SC.........

CITY           SKY/WX    TMP DP  RH WIND       PRES   REMARKS
CHARLESTON     CLEAR     56  45  66 NW6       30.06R
BEAUFORT MCAS  CLEAR     54  48  80 NW3       30.07R
HILTON HEAD    NOT AVBL

.........CENTRAL SC.........

CITY           SKY/WX    TMP DP  RH WIND       PRES   REMARKS
COLUMBIA       CLEAR     58  42  55 N7        30.09R
ORANGEBURG     CLEAR     50  46  86 CALM      30.08R
SUMTER SHAW    CLEAR     56  46  67 N12       30.06R

.........WESTERN SC.........

CITY           SKY/WX    TMP DP  RH WIND       PRES   REMARKS
GREENVILLE     NOT AVBL
ROCK HILL      CLEAR     52  39  61 N10       30.10S
ANDERSON       CLEAR     53  38  56 NE3       30.11R
CLEMSON        NOT AVBL
GREENWOOD      CLEAR     50  42  74 N5        30.13R


...................COASTAL AND OFFSHORE REPORTS..................

................LOCAL PIERS AND NC RESERVE................


STATION/POSITION TIME  SKY/WX   TEMP    WIND        PRES    VSBY
                                AIR SEA DIR/SP/G
                 (UTC)          (F)     (DEG/KT/KT) (MB)    (MI)
JOHNY MRCER PIER 0200            60 74  310/  6/  8 1015.5R
NC RESRV MASNBRO 0100            57     280/  2     1015.0S
OCEAN CREST PIER 0200            58 71  290/  5/  7 1015.5R
SPRINGMAID  PIER 0200            58 71  310/  2/  4 1017.0R


................COASTAL AND OFFSHORE BUOYS................


STATION/POSITION TIME  SKY/WX   TEMP    WIND        PRES    VSBY
                                AIR SEA DIR/SP/G
                 (UTC)          (F)     (DEG/KT/KT) (MB)    (MI)
DIMNDSHOAL 41025 0200            61     310/ 25/ 31 1011.8R
WVE H/P(F/S)=  6/ 6 WND WVE H/P(F/S)=  7/ 6 SWL H/P/D(F/S/D)=  2/100/10

CAPE LOOKOUT     0100            61     320/ 14/ 18 1014.0R
ONSLOW BAY 41036 0200            66 76  320/ 21/ 31 1014.2R
WVE H/P(F/S)=  3/ 4 WND WVE H/P(F/S)=  3/ 4

5 WRITEBCH 41038 0200            60 72  330/ 19/ 21   N/A
MASONBORO  41110 0200               73                N/A
WVE H/P(F/S)=  2/11 WND WVE H/P(F/S)=  2/ 3

WILM HARBR 41108 0200               73                N/A
WVE H/P(F/S)=  2/11 WND WVE H/P(F/S)=  2/ 3

27WRITEBCH 41037 0100            64 75  310/ 17/ 21 1014.7R
FRYING PAN 41013 0200            66 75  320/ 16/ 19 1016.7R
WVE H/P(F/S)=  3/ 5 WND WVE H/P(F/S)=  3/ 5 SWL H/P/D(F/S/D)=  2/130/10

SUNST NRSH 41024 0100            63     300/ 10/ 10 1015.8R
CAPRS NRSH 41029 NOT AVBL
EDISTO     41004 0200            67 78  330/ 14/ 17 1016.8R
WVE H/P(F/S)=  4/ 6 WND WVE H/P(F/S)=  3/ 6 SWL H/P/D(F/S/D)=  2/10



..........OFFSHORE BUOYS BEYOND 100 NM OFFSHORE...........
.....IN A TRIANGLE---HAT TO BERMUDA TO BAHAMAS TO HAT.....


STATION/POSITION TIME  SKY/WX   TEMP    WIND        PRES    VSBY
                                AIR SEA DIR/SP/G
                 (UTC)          (F)     (DEG/KT/KT) (MB)    (MI)
150E HAT   41001 NOT AVBL
W BERMUDA  41048 0051            77 79  240/ 14/ 16 1009.8
WVE H/P(F/S)=  7/ 7 WND WVE H/P(F/S)=  5/ 7 SWL H/P/D(F/S/D)=  3/230/ 8

ATLANTIC S 41049 0056            80 81  140/  6/ 10 1015.9
WVE H/P(F/S)=  3/ 9 SWL H/P/D(F/S/D)=  3/ 60/ 9

E BAHAMAS  41046 0128            82 84  160/  6/  6 1014.9R
WVE H/P(F/S)=  4/ 9 WND WVE H/P(F/S)=  2/ 3 SWL H/P/D(F/S/D)=  3/ 50/ 9

NE BAHAMAS 41047 0103            80 82  230/ 10/ 12 1013.9
WVE H/P(F/S)=  3/ 9 WND WVE H/P(F/S)=  2/ 3 SWL H/P/D(F/S/D)=  3/ 80/ 9

120E CANVRL41010 0200            75 81   20/ 14/ 17 1015.5R
WVE H/P(F/S)=  4/ 6 WND WVE H/P(F/S)=  3/ 6 SWL H/P/D(F/S/D)=  2/100/ 9


END



USA.gov is the U.S. government's official web portal to all federal, state and local government web resources and services.